STARLINK-5166 (54085 NORAD) Tracking and Keplerian Element Data

This shows tracking and keplerian element data for the satellite.

Feedback or suggestion? Click here.




ElementValue
Catalog54085
NameSTARLINK-5166
Epoch Orbit549
Epoch Day325.33334491
Epoch Year2022
RAAN350.8902
Inclination53.2148
Eccentricity0.0003936
Argument of Perigee10.4349
Mean Anonmoly336.8092
Mean Motion15.73176395
Decay Rate0.00024685
L11 54085U 22136AL 22325.33334491 .00024685 00000+0 17992-3 0 9995
L22 54085 53.2148 350.8902 0003936 10.4349 336.8092 15.73176395 5492



Live tracking and technical data element details for STARLINK-5166 (NORAD 54085). STARLINK-5166 can be tracked NOW for your location showing map with azimuth and elevation plus other details from your city location.







IsCatalogInMostPopularTable: catalog: 54085, numindb: 1
Update: records affected: 1



GetName: 54085 STARLINK-5166

Hit Count: updated at: Mon, 28 Nov 2022 20:50:49 GMT